Weather History for FAGG - January, 2013

Change the Weather History Date:

Thursday, January 3, 2013

  Actual Average Record
Temperature  
Mean Temperature 69 °F -  
Max Temperature 78 °F 74 °F 76 °F (2015)
Min Temperature 59 °F 58 °F 57 °F (2015)
Cooling Degree Days 4    
Growing Degree Days 19 (Base 50)    
Moisture  
Dew Point 54 °F    
Average Humidity 64    
Maximum Humidity 88    
Minimum Humidity 36    
Precipitation  
Precipitation 0.02 in - - ()
Sea Level Pressure  
Sea Level Pressure 29.81 in    
Wind  
Wind Speed 13 mph ()    
Max Wind Speed 32 mph    
Max Gust Speed 36 mph    
Visibility 7.6 miles    
Events      
Averages and records for this station are not official NWS values.
T = Trace of Precipitation, MM = Missing Value Source: Averaged Metar Reports

Daily Weather History Graph

Daily Weather History Graph

Search for Another Location

Airport or City:

Trip Planner

Search our weather history database for the weather conditions in past years. The results will help you decide how hot, cold, wet, or windy it might be!

Date:

Astronomy

Jan. 03, 2013 Rise Set
Actual Time 5:24 AM SAST 7:45 PM SAST
Civil Twilight 4:55 AM SAST 8:14 PM SAST
Nautical Twilight 4:19 AM SAST 8:49 PM SAST
Astronomical Twilight 3:40 AM SAST 9:28 PM SAST
Moon 11:13 PM SAST (1/3) 10:59 AM SAST (1/3)
Length of Visible Light 15h 19m
Length of Day
14h 21m
Waning Gibbous, 68% of the Moon is Illuminated
Jan 3
Waning Gibbous
Jan 5
Last Quarter
Jan 11
New
Jan 19
First Quarter
Jan 27
Full

Hourly Weather History & Observations

Time (SAST) Temp. Dew Point Humidity Pressure Visibility Wind Dir Wind Speed Gust Speed Precip Events Conditions
12:00 AM 60.8 °F 57.2 °F 88% 29.74 in - West 8.1 mph - N/A   Clear
1:00 AM 64.4 °F 59.0 °F 83% 29.77 in 6.2 mi West 11.5 mph - N/A   Mostly Cloudy
2:00 AM 64 °F 58 °F 76% 29.74 in 12 mi West 9.2 mph - -  
2:00 AM 64.4 °F 57.2 °F 77% 29.74 in 6.2 mi West 9.2 mph - N/A   Overcast
3:00 AM 64.4 °F 57.2 °F 77% 29.74 in 6.2 mi West 10.4 mph - N/A   Overcast
4:00 AM 62.6 °F 55.4 °F 77% 29.71 in 6.2 mi West 9.2 mph - N/A   Mostly Cloudy
5:00 AM 62 °F 54 °F 69% 29.72 in 12 mi West 11.5 mph - -   Mostly Cloudy
5:00 AM 62.6 °F 55.4 °F 77% 29.71 in 6.2 mi West 10.4 mph - N/A   Mostly Cloudy
6:00 AM 60.8 °F 53.6 °F 77% 29.71 in 6.2 mi West 9.2 mph - N/A   Partly Cloudy
7:00 AM 64.4 °F 55.4 °F 73% 29.71 in - WNW 6.9 mph - N/A   Clear
8:00 AM 71 °F 50 °F 36% 29.69 in 12 mi WNW 18.4 mph - -   Clear
8:00 AM 71.6 °F 50.0 °F 46% 29.68 in - WNW 19.6 mph - N/A   Clear
9:00 AM 77.0 °F 48.2 °F 36% 29.68 in 6.2 mi WNW 27.6 mph - N/A   Partly Cloudy
10:00 AM 75.2 °F 48.2 °F 38% 29.74 in 6.2 mi West 24.2 mph 35.7 mph N/A   Mostly Cloudy
11:00 AM 76 °F 55 °F 38% 29.75 in 12 mi WSW 32.2 mph - -   Partly Cloudy
11:00 AM 75.2 °F 53.6 °F 47% 29.77 in 6.2 mi WSW 32.2 mph - N/A   Scattered Clouds
12:00 PM 69.8 °F 53.6 °F 56% 29.80 in 6.2 mi West 32.2 mph - N/A   Mostly Cloudy
1:00 PM 66.2 °F 55.4 °F 68% 29.83 in 6.2 mi WSW 19.6 mph - N/A   Mostly Cloudy
2:00 PM 67 °F 59 °F 67% 29.85 in 12 mi WSW 12.7 mph - -   Partly Cloudy
2:00 PM 66.2 °F 57.2 °F 73% 29.86 in 6.2 mi WSW 13.8 mph - N/A   Mostly Cloudy
3:00 PM 64.4 °F 55.4 °F 73% 29.86 in 6.2 mi SSW 24.2 mph - N/A   Mostly Cloudy
4:00 PM 66.2 °F 53.6 °F 64% 29.86 in 6.2 mi SW 24.2 mph - N/A   Mostly Cloudy
5:00 PM 68 °F 54 °F 51% 29.88 in 12 mi SW 24.2 mph - -   Partly Cloudy
5:00 PM 68.0 °F 53.6 °F 60% 29.89 in 6.2 mi SSW 25.3 mph - N/A   Scattered Clouds
6:00 PM 66.2 °F 53.6 °F 64% 29.89 in 6.2 mi SW 20.7 mph - N/A   Scattered Clouds
7:00 PM 64.4 °F 53.6 °F 68% 29.92 in 6.2 mi SW 18.4 mph - N/A   Mostly Cloudy
8:00 PM 64 °F 53 °F 58% 29.94 in 12 mi WSW 13.8 mph - -   Mostly Cloudy
8:00 PM 62.6 °F 51.8 °F 68% 29.95 in 6.2 mi WSW 11.5 mph - N/A   Mostly Cloudy
9:00 PM 62.6 °F 51.8 °F 68% 29.95 in 6.2 mi WSW 15.0 mph - N/A   Mostly Cloudy
10:00 PM 60.8 °F 51.8 °F 72% 29.98 in 6.2 mi WNW 6.9 mph - N/A   Mostly Cloudy
11:00 PM 59.0 °F 50.0 °F 72% 30.01 in 6.2 mi WNW 8.1 mph - N/A   Partly Cloudy